Tracking 29892 objects as of 21-Nov-2024
HD Live streaming from Space Station
objects crossing your sky now

SCOUT X-4 DEB

Track SCOUT X-4 DEB now!
10-day predictions


NORAD ID: 40592
Int'l Code: 1964-051F
Perigee: 550.5 km
Apogee: 598.9 km
Inclination: 79.9 °
Period: 96.0 minutes
Semi major axis: 6945 km
RCS: Unknown
Launch date: August 25, 1964
Source: United States (US)
Launch site: AIR FORCE WESTERN TEST RANGE (AFWTR)

Note: This is SATELLITE DEBRIS
Your satellite tracking list
Your tracking list is empty




NASA's NSSDC Master Catalog

Two Line Element Set (TLE):
1 40592U 64051F   24325.19216947  .00380254  00000-0  28854-1 0  9991
2 40592  79.8529 236.8563 0034808  62.8037 297.6719 14.99783220495143
Source of the keplerian elements: AFSPC